EW7890 Weather Reports


Display with metric or nautical units.
time (UTC)temp
F
wind
direction
speed
MPH
gust
MPH
rain 1hr
in
rain 24hr
in
rain mn
in
humidity
%
barometer
mb
20190119110019 62 319 0.0 1.0 0.00 0.00 0.00 82 1019.1
20190119104508 62 311 0.0 1.0 0.00 0.00 0.00 81 1019.0
20190119103005 62 302 0.0 1.0 0.00 0.00 0.00 81 1018.7
20190119101530 62 290 0.0 2.0 0.00 0.00 0.00 81 1018.6
20190119100006 62 345 0.0 1.0 0.00 0.00 0.00 84 1018.5
20190119094502 62 335 0.0 1.0 0.00 0.00 0.00 84 1018.5
20190119093155 63 335 0.0 1.0 0.00 0.00 0.00 84 1018.5
20190119091912 63 314 0.0 2.0 0.00 0.00 0.00 85 1018.5
20190119090215 63 323 0.0 3.0 0.00 0.00 0.00 87 1018.5
20190119084745 62 6 0.0 3.0 0.00 0.00 0.00 88 1018.5
20190119083233 63 291 0.0 3.0 0.00 0.00 0.00 90 1018.5
20190119081635 62 297 0.0 2.0 0.00 0.00 0.00 90 1018.5
20190119080213 61 285 0.0 1.0 0.00 0.00 0.00 88 1018.6
20190119074643 61 333 0.0 0.0 0.00 0.00 0.00 87 1018.5
20190119073138 62 307 0.0 2.0 0.00 0.00 0.00 88 1018.5
20190119071646 61 351 0.0 1.0 0.00 0.00 0.00 90 1018.6
20190119070122 60 316 0.0 0.0 0.00 0.00 0.00 90 1018.7
20190119064612 61 311 0.0 0.0 0.00 0.00 0.00 91 1018.7
20190119063253 61 11 0.0 0.0 0.00 0.00 0.00 91 1018.6
20190119061618 61 12 0.0 1.0 0.00 0.00 0.00 91 1018.7
20190119060105 60 319 0.0 0.0 0.00 0.00 0.00 92 1018.6
20190119054611 59 120 0.0 0.0 0.00 0.00 0.00 91 1018.7
20190119053124 60 120 0.0 1.0 0.00 0.00 0.00 92 1018.6
20190119051610 59 119 0.0 1.0 0.00 0.00 0.00 92 1018.6
20190119050203 58 125 0.0 0.0 0.00 0.00 0.00 91 1018.6
20190119044617 58 124 0.0 0.0 0.00 0.00 0.00 90 1018.6
20190119043128 59 124 0.0 0.0 0.00 0.00 0.00 89 1018.7
20190119041542 60 124 0.0 0.0 0.00 0.00 0.00 89 1018.7
20190119040055 61 124 0.0 0.0 0.00 0.00 0.00 89 1018.7
20190119034617 61 146 0.0 0.0 0.00 0.00 0.00 89 1018.7
20190119033048 60 176 0.0 0.0 0.00 0.00 0.00 89 1018.6
20190119031652 60 225 0.0 0.0 0.00 0.00 0.00 87 1018.6
20190119030027 61 79 0.0 0.0 0.00 0.00 0.00 87 1018.5
20190119024554 61 110 0.0 1.0 0.00 0.00 0.00 86 1018.6
20190119023100 62 323 0.0 1.0 0.00 0.00 0.00 86 1018.6
20190119021530 62 28 0.0 0.0 0.00 0.00 0.00 86 1018.7
20190119020040 61 108 0.0 1.0 0.00 0.00 0.00 87 1018.4
20190119014527 61 356 0.0 0.0 0.00 0.00 0.00 85 1018.3
20190119013024 62 4 0.0 0.0 0.00 0.00 0.00 82 1018.4
20190119011545 63 3 0.0 1.0 0.00 0.00 0.00 81 1018.3
20190119010033 63 296 0.0 2.0 0.00 0.00 0.00 80 1018.3
20190119004523 63 281 0.0 0.0 0.00 0.00 0.00 78 1018.3
20190118230154 63 108 0.0 1.0 0.00 0.00 0.00 76 1018.5
20190118224706 63 106 0.0 1.0 0.00 0.00 0.00 75 1018.6
20190118221738 63 103 0.0 1.0 0.00 0.00 0.00 74 1018.4
20190118220133 63 103 0.0 1.0 0.00 0.00 0.00 72 1018.5
20190118214708 64 103 0.0 1.0 0.00 0.00 0.00 69 1018.5
20190118213131 65 128 0.0 2.0 0.00 0.00 0.00 65 1018.3
20190118211637 65 127 0.0 3.0 0.00 0.00 0.00 65 1018.3
20190118210150 65 131 0.0 2.0 0.00 0.00 0.00 65 1018.1
20190118204701 65 155 0.0 1.0 0.00 0.00 0.00 71 1017.9
20190118203155 65 314 0.0 2.0 0.00 0.00 0.00 71 1017.8
20190118201635 66 249 0.0 3.0 0.00 0.00 0.00 69 1017.8
20190118200124 66 255 0.0 2.0 0.00 0.00 0.00 67 1017.9
20190118194649 67 308 0.0 3.0 0.00 0.00 0.00 66 1017.8
20190118193133 67 171 0.0 2.0 0.00 0.00 0.00 65 1017.6
20190118191624 68 260 0.0 3.0 0.00 0.00 0.00 63 1017.9
20190118190137 68 240 0.0 4.0 0.00 0.00 0.00 65 1017.4
20190118184706 69 231 0.0 4.0 0.00 0.00 0.00 64 1017.5
20190118183201 68 245 0.0 3.0 0.00 0.00 0.00 67 1017.7
20190118181644 68 255 1.0 5.0 0.00 0.00 0.00 65 1017.9
20190118180133 68 175 0.0 3.0 0.00 0.00 0.00 65 1018.4
20190118174607 67 344 0.0 2.0 0.00 0.00 0.00 64 1018.4
20190118173115 68 260 0.0 5.0 0.00 0.00 0.00 64 1018.8
20190118171543 68 243 0.0 2.0 0.00 0.00 0.00 63 1018.8
20190118170107 69 198 1.0 6.0 0.00 0.00 0.00 61 1018.8
20190118164614 68 125 0.0 4.0 0.00 0.00 0.00 62 1019.2
20190118163121 68 232 1.0 4.0 0.00 0.00 0.00 63 1019.5
20190118161537 67 141 0.0 3.0 0.00 0.00 0.00 61 1019.6
20190118160031 67 139 0.0 3.0 0.00 0.00 0.00 63 1019.9
20190118154538 68 134 0.0 3.0 0.00 0.00 0.00 62 1020.1
20190118153059 67 103 0.0 5.0 0.00 0.00 0.00 64 1020.4
20190118151538 67 271 0.0 4.0 0.00 0.00 0.00 64 1020.4
20190118150042 67 270 0.0 3.0 0.00 0.00 0.00 64 1020.4
20190118144636 67 121 1.0 4.0 0.00 0.00 0.00 62 1020.5
20190118143038 67 187 0.0 7.0 0.00 0.00 0.00 66 1020.5
20190118141559 66 255 0.0 3.0 0.00 0.00 0.00 65 1020.8
20190118140051 66 276 0.0 5.0 0.00 0.00 0.00 66 1020.8
20190118134519 66 75 0.0 2.0 0.00 0.00 0.00 65 1020.8
20190118133109 66 184 0.0 4.0 0.00 0.00 0.00 66 1020.7
20190118131529 65 269 0.0 4.0 0.00 0.00 0.00 67 1020.4
20190118130044 64 170 0.0 3.0 0.00 0.00 0.00 70 1020.4
20190118124503 62 173 0.0 4.0 0.00 0.00 0.00 74 1020.4
20190118123121 62 111 0.0 3.0 0.00 0.00 0.00 75 1020.4
20190118121714 60 109 0.0 1.0 0.00 0.00 0.00 79 1020.4
20190118120123 58 138 0.0 2.0 0.00 0.00 0.00 82 1020.7
20190118114710 56 165 0.0 1.0 0.00 0.00 0.00 86 1020.7
20190118113202 55 69 0.0 0.0 0.00 0.00 0.00 88 1020.9
20190118111611 55 69 0.0 0.0 0.00 0.00 0.00 90 1020.9